World > North America > United States > Alabama

Highland Lake, Alabama Regional Weather

Lat: 33.89N, Lon: 86.42W
Wx Zone: ALZ017
Warning NWS WEATHER ALERT - (More Info. Click Here) Warning
Feedback

Highland Lake, AL Regional Weather

Expires:202007121700;;737683
ASUS44 KBMX 121610
RWRAL 
             
ALABAMA REGIONAL WEATHER ROUNDUP
NATIONAL WEATHER SERVICE BIRMINGHAM AL
1100 AM CDT SUN JUL 12 2020

NOTE: "FAIR" INDICATES FEW OR NO CLOUDS BELOW 12,000 FEET
WITH NO SIGNIFICANT WEATHER AND/OR OBSTRUCTIONS TO VISIBILITY.

THE REMARK "TC" DENOTES TEMPERATURE IN DEGREES CELSIUS.


ALZ001>011-014-016>018-020-121700-
NORTH ALABAMA
  
CITY           SKY/WX    TMP DP  RH WIND       PRES   REMARKS
MUSCLE SHOALS  NOT AVBL                                               
HUNTSVILLE     TSTM      69  68  96 NE14      29.95R FOG              
DECATUR        RAIN      69  69 100 NE16G23   29.92F FOG              
HALEYVILLE     LGT RAIN  72  70  93 NE13G25   29.93S                  
GADSDEN        CLOUDY    80  73  79 NE6       29.93R                  
$$
 

SKY/WX - Weather  TMP - Temperature  DP - Dew Point  RH - Relative Humidity
WIND - Wind Direction/Speed PRES - Barometric Pressure VSB - Visibility
WCI - Wind Chill Index E13G22 Wind - East Wind 13 mph/Gusts of 22 mph
Highland Lake Weather Map
UTC Time: 7/12/2020, 16:15
Your Time: